H1 CPF 1 NER 2022 3 4 9 5631 glonass141 H2 1908801 9141 44850 2022 3 4 0 0 0 2022 3 7 23 45 0 900 1 1 0 0 0 H9 10 0 59642 0.00000 0 -3484317.597 -10657159.152 -22881682.228 10 0 59642 900.00000 0 -1285558.882 -12378734.822 -22236970.821 10 0 59642 1800.00000 0 700736.387 -14187197.080 -21159127.624 10 0 59642 2700.00000 0 2436759.172 -16024701.160 -19669233.453 10 0 59642 3600.00000 0 3896427.797 -17828790.481 -17796399.329 10 0 59642 4500.00000 0 5066223.125 -19534945.646 -15577189.038 10 0 59642 5400.00000 0 5945488.923 -21079237.336 -13054895.733 10 0 59642 6300.00000 0 6546186.888 -22400971.233 -10278687.382 10 0 59642 7200.00000 0 6892118.952 -23445213.496 -7302638.561 10 0 59642 8100.00000 0 7017652.027 -24165090.601 -4184668.308 10 0 59642 9000.00000 0 6966001.327 -24523767.015 -985405.496 10 0 59642 9900.00000 0 6787146.809 -24496018.063 2232995.279 10 0 59642 10800.00000 0 6535472.539 -24069332.599 5408063.681 10 0 59642 11700.00000 0 6267230.080 -23244500.106 8478225.564 10 0 59642 12600.00000 0 6037933.922 -22035658.626 11383993.091 10 0 59642 13500.00000 0 5899799.300 -20469802.548 14069110.190 10 0 59642 14400.00000 0 5899330.489 -18585771.689 16481631.751 10 0 59642 15300.00000 0 6075160.769 -16432764.583 18574916.511 10 0 59642 16200.00000 0 6456234.399 -14068438.209 20308515.623 10 0 59642 17100.00000 0 7060406.378 -11556673.048 21648941.187 10 0 59642 18000.00000 0 7893518.194 -8965095.791 22570301.223 10 0 59642 18900.00000 0 8948988.118 -6362461.410 23054790.265 10 0 59642 19800.00000 0 10207933.324 -3816001.672 23093027.197 10 0 59642 20700.00000 0 11639819.376 -1388848.367 22684234.559 10 0 59642 21600.00000 0 13203611.047 862363.839 21836256.214 10 0 59642 22500.00000 0 14849377.942 2889617.303 20565412.824 10 0 59642 23400.00000 0 16520289.642 4655267.607 18896197.305 10 0 59642 24300.00000 0 18154918.951 6133364.398 16860815.026 10 0 59642 25200.00000 0 19689758.811 7310482.749 14498576.245 10 0 59642 26100.00000 0 21061849.123 8186030.794 11855150.973 10 0 59642 27000.00000 0 22211404.605 8772020.883 8981699.103 10 0 59642 27900.00000 0 23084334.034 9092313.656 5933891.157 10 0 59642 28800.00000 0 23634545.058 9181366.354 2770837.547 10 0 59642 29700.00000 0 23825937.004 9082537.692 -446053.669 10 0 59642 30600.00000 0 23633996.651 8846020.492 -3654268.745 10 0 59642 31500.00000 0 23046928.134 8526489.338 -6791406.519 10 0 59642 32400.00000 0 22066267.518 8180563.053 -9796398.859 10 0 59642 33300.00000 0 20706954.189 7864190.065 -12610708.677 10 0 59642 34200.00000 0 18996854.241 7630068.392 -15179481.062 10 0 59642 35100.00000 0 16975754.316 7525210.841 -17452623.974 10 0 59642 36000.00000 0 14693866.951 7588760.049 -19385796.319 10 0 59642 36900.00000 0 12209909.409 7850147.427 -20941283.054 10 0 59642 37800.00000 0 9588836.154 8327675.456 -22088739.454 10 0 59642 38700.00000 0 6899319.834 9027584.708 -22805789.406 10 0 59642 39600.00000 0 4211086.396 9943646.162 -23078465.657 10 0 59642 40500.00000 0 1592215.988 11057296.936 -22901483.262 10 0 59642 41400.00000 0 -893477.436 12338314.328 -22278340.949 10 0 59642 42300.00000 0 -3188878.207 13745999.988 -21221248.576 10 0 59642 43200.00000 0 -5245711.499 15230824.348 -19750882.451 10 0 59642 44100.00000 0 -7026307.464 16736461.776 -17895973.691 10 0 59642 45000.00000 0 -8504914.193 18202130.294 -15692738.208 10 0 59642 45900.00000 0 -9668506.106 19565136.808 -13184160.058 10 0 59642 46800.00000 0 -10517055.810 20763520.102 -10419142.833 10 0 59642 47700.00000 0 -11063260.180 21738679.788 -7451546.483 10 0 59642 48600.00000 0 -11331734.614 22437880.179 -4339129.153 10 0 59642 49500.00000 0 -11357711.852 22816523.522 -1142415.481 10 0 59642 50400.00000 0 -11185302.475 22840097.025 2076485.740 10 0 59642 51300.00000 0 -10865392.575 22485712.152 5255090.925 10 0 59642 52200.00000 0 -10453268.972 21743172.074 8331754.141 10 0 59642 53100.00000 0 -10006073.419 20615523.208 11246858.851 10 0 59642 54000.00000 0 -9580193.888 19119068.535 13943966.071 10 0 59642 54900.00000 0 -9228703.125 17282842.837 16370897.255 10 0 59642 55800.00000 0 -8998952.075 15147572.355 18480731.757 10 0 59642 56700.00000 0 -8930418.860 12764162.480 20232700.832 10 0 59642 57600.00000 0 -9052902.903 10191776.229 21592962.248 10 0 59642 58500.00000 0 -9385139.192 7495582.840 22535241.985 10 0 59642 59400.00000 0 -9933890.124 4744268.823 23041331.986 10 0 59642 60300.00000 0 -10693552.670 2007413.204 23101435.522 10 0 59642 61200.00000 0 -11646297.331 -647165.968 22714354.256 10 0 59642 62100.00000 0 -12762733.712 -3155985.848 21887513.760 10 0 59642 63000.00000 0 -14003075.886 -5462289.055 20636826.833 10 0 59642 63900.00000 0 -15318760.249 -7518152.465 18986396.644 10 0 59642 64800.00000 0 -16654449.858 -9286228.547 16968064.355 10 0 59642 65700.00000 0 -17950343.079 -10741047.903 14620808.564 10 0 59642 66600.00000 0 -19144691.403 -11869829.332 11990006.666 10 0 59642 67500.00000 0 -20176422.101 -12672763.892 9126570.791 10 0 59642 68400.00000 0 -20987756.374 -13162760.944 6085973.588 10 0 59642 69300.00000 0 -21526713.116 -13364666.456 2927181.608 10 0 59642 70200.00000 0 -21749392.495 -13313985.992 -288483.837 10 0 59642 71100.00000 0 -21621942.148 -13055165.754 -3498536.630 10 0 59642 72000.00000 0 -21122121.549 -12639503.960 -6640543.300 10 0 59642 72900.00000 0 -20240396.747 -12122780.845 -9653343.840 10 0 59642 73800.00000 0 -18980517.178 -11562707.888 -12478251.332 10 0 59642 74700.00000 0 -17359548.189 -11016304.939 -15060205.860 10 0 59642 75600.00000 0 -15407355.939 -10537317.277 -17348859.153 10 0 59642 76500.00000 0 -13165564.671 -10173783.181 -19299567.673 10 0 59642 77400.00000 0 -10686028.940 -9965856.304 -20874273.693 10 0 59642 78300.00000 0 -8028883.997 -9943976.302 -22042256.391 10 0 59642 79200.00000 0 -5260255.516 -10127466.281 -22780737.661 10 0 59642 80100.00000 0 -2449724.428 -10523617.361 -23075330.430 10 0 59642 81000.00000 0 332347.165 -11127299.744 -22920320.531 10 0 59642 81900.00000 0 3017517.180 -11921117.156 -22318776.673 10 0 59642 82800.00000 0 5541878.909 -12876098.253 -21282486.503 10 0 59642 83700.00000 0 7848481.495 -13952895.668 -19831720.315 10 0 59642 84600.00000 0 9889454.893 -15103441.710 -17994827.440 10 0 59642 85500.00000 0 11627751.202 -16272990.238 -15807673.705 10 0 59643 0.00000 0 13038430.665 -17402457.777 -13312931.833 10 0 59643 900.00000 0 14109440.818 -18430964.942 -10559237.877 10 0 59643 1800.00000 0 14841856.223 -19298468.719 -7600234.467 10 0 59643 2700.00000 0 15249573.515 -19948375.989 -4493515.815 10 0 59643 3600.00000 0 15358475.027 -20330026.148 -1299499.208 10 0 59643 4500.00000 0 15205099.393 -20400938.567 1919755.490 10 0 59643 5400.00000 0 14834877.221 -20128730.219 5101754.478 10 0 59643 6300.00000 0 14300008.161 -19492623.033 8184782.921 10 0 59643 7200.00000 0 13657070.320 -18484478.120 11109098.247 10 0 59643 8100.00000 0 12964463.799 -17109314.047 13818080.943 10 0 59643 9000.00000 0 12279796.464 -15385287.974 16259321.093 10 0 59643 9900.00000 0 11657321.912 -13343140.918 18385620.399 10 0 59643 10800.00000 0 11145536.842 -11025130.465 20155891.571 10 0 59643 11700.00000 0 10785037.879 -8483495.166 21535939.057 10 0 59643 12600.00000 0 10606726.783 -5778513.970 22499107.429 10 0 59643 13500.00000 0 10630438.271 -2976240.190 23026786.326 10 0 59643 14400.00000 0 10864047.122 -146002.523 23108763.366 10 0 59643 15300.00000 0 11303091.478 2642225.008 22743418.975 10 0 59643 16200.00000 0 11930928.104 5320477.231 21937759.802 10 0 59643 17100.00000 0 12719413.571 7825368.204 20707289.905 10 0 59643 18000.00000 0 13630083.791 10100473.040 19075721.611 10 0 59643 18900.00000 0 14615783.789 12098424.017 17074530.578 10 0 59643 19800.00000 0 15622680.912 13782635.144 14742362.277 10 0 59643 20700.00000 0 16592578.511 15128584.114 12124299.833 10 0 59643 21600.00000 0 17465434.254 16124598.597 9271005.791 10 0 59643 22500.00000 0 18181978.142 16772113.931 6237752.930 10 0 59643 23400.00000 0 18686320.467 17085391.052 3083361.781 10 0 59643 24300.00000 0 18928439.647 17090705.990 -130935.383 10 0 59643 25200.00000 0 18866444.282 16825044.473 -3342682.459 10 0 59643 26100.00000 0 18468512.623 16334356.194 -6489416.075 10 0 59643 27000.00000 0 17714425.828 15671442.199 -9509886.726 10 0 59643 27900.00000 0 16596628.154 14893564.723 -12345259.931 10 0 59643 28800.00000 0 15120767.168 14059880.943 -14940272.907 10 0 59643 29700.00000 0 13305689.001 13228809.883 -17244323.124 10 0 59643 30600.00000 0 11182886.786 12455444.822 -19212466.397 10 0 59643 31500.00000 0 8795423.878 11789121.716 -20806303.950 10 0 59643 32400.00000 0 6196375.693 11271247.585 -21994740.342 10 0 59643 33300.00000 0 3446854.631 10933481.642 -22754596.798 10 0 59643 34200.00000 0 613700.302 10796346.878 -23071067.552 10 0 59643 35100.00000 0 -2233068.568 10868331.269 -22938010.109 10 0 59643 36000.00000 0 -5022934.117 11145516.843 -22358063.749 10 0 59643 36900.00000 0 -7687579.175 11611752.157 -21342594.131 10 0 59643 37800.00000 0 -10163494.259 12239360.574 -19911465.358 10 0 59643 38700.00000 0 -12394383.118 12990353.779 -18092644.378 10 0 59643 39600.00000 0 -14333266.725 13818098.469 -15921645.952 10 0 59643 40500.00000 0 -15944198.671 14669364.872 -13440829.657 10 0 59643 41400.00000 0 -17203521.424 15486669.551 -10698563.307 10 0 59643 42300.00000 0 -18100612.380 16210812.538 -7748269.960 10 0 59643 43200.00000 0 -18638090.436 16783500.750 -4647377.915 10 0 59643 44100.00000 0 -18831476.593 17149946.188 -1456195.003 10 0 59643 45000.00000 0 -18708325.141 17261328.750 1763270.041 10 0 59643 45900.00000 0 -18306864.281 17077019.552 4948515.516 10 0 59643 46800.00000 0 -17674205.443 16566471.071 8037760.083 10 0 59643 47700.00000 0 -16864198.444 15710694.805 10971137.634 10 0 59643 48600.00000 0 -15935024.002 14503264.747 13691850.696 10 0 59643 49500.00000 0 -14946625.647 12950804.955 16147260.584 10 0 59643 50400.00000 0 -13958089.134 11072941.206 18289893.951 10 0 59643 51300.00000 0 -13025079.080 8901718.874 20078347.500 10 0 59643 52200.00000 0 -12197439.571 6480511.099 21478074.757 10 0 59643 53100.00000 0 -11517058.217 3862462.217 22462041.096 10 0 59643 54000.00000 0 -11016081.891 1108530.101 23011235.809 10 0 59643 54900.00000 0 -10715557.610 -1714792.769 23115032.493 10 0 59643 55800.00000 0 -10624554.514 -4537986.683 22771391.619 10 0 59643 56700.00000 0 -10739803.043 -7291138.662 21986901.778 10 0 59643 57600.00000 0 -11045866.293 -9906595.926 20776658.705 10 0 59643 58500.00000 0 -11515836.739 -12321530.819 19163983.831 10 0 59643 59400.00000 0 -12112529.922 -14480312.539 17179986.778 10 0 59643 60300.00000 0 -12790126.164 -16336588.602 14862978.877 10 0 59643 61200.00000 0 -13496192.676 -17854990.274 12257747.527 10 0 59643 62100.00000 0 -14174002.326 -19012391.415 9414703.815 10 0 59643 63000.00000 0 -14765052.491 -19798668.143 6388918.419 10 0 59643 63900.00000 0 -15211678.497 -20216927.116 3239063.304 10 0 59643 64800.00000 0 -15459651.523 -20283192.279 26278.888 10 0 59643 65700.00000 0 -15460650.789 -20025562.499 -3187011.784 10 0 59643 66600.00000 0 -15174504.544 -19482874.861 -6338318.687 10 0 59643 67500.00000 0 -14571103.569 -18702929.477 -9366306.222 10 0 59643 68400.00000 0 -13631904.344 -17740350.496 -12211995.863 10 0 59643 69300.00000 0 -12350956.189 -16654173.716 -14819925.494 10 0 59643 70200.00000 0 -10735406.698 -15505263.145 -17139241.780 10 0 59643 71100.00000 0 -8805461.926 -14353666.321 -19124703.149 10 0 59643 72000.00000 0 -6593801.045 -13256020.995 -20737572.706 10 0 59643 72900.00000 0 -4144468.390 -12263123.614 -21946382.864 10 0 59643 73800.00000 0 -1511288.102 -11417763.130 -22727556.105 10 0 59643 74700.00000 0 1244132.988 -10752912.250 -23065869.297 10 0 59643 75600.00000 0 4054731.187 -10290352.893 -22954752.313 10 0 59643 76500.00000 0 6850543.463 -10039793.933 -22396415.114 10 0 59643 77400.00000 0 9561389.752 -9998518.228 -21401800.914 10 0 59643 78300.00000 0 12119568.027 -10151573.279 -19990366.664 10 0 59643 79200.00000 0 14462449.620 -10472496.565 -18189695.501 10 0 59643 80100.00000 0 16534866.498 -10924543.892 -16034949.248 10 0 59643 81000.00000 0 18291191.246 -11462367.577 -13568172.292 10 0 59643 81900.00000 0 19697023.584 -12034072.247 -10837461.068 10 0 59643 82800.00000 0 20730413.952 -12583560.062 -7896016.233 10 0 59643 83700.00000 0 21382574.502 -13053065.001 -4801096.844 10 0 59643 84600.00000 0 21658049.549 -13385768.070 -1612897.726 10 0 59643 85500.00000 0 21574340.386 -13528382.121 1606627.144 10 0 59644 0.00000 0 21161002.473 -13433596.641 4794971.474 10 0 59644 900.00000 0 20458254.753 -13062278.989 7890291.434 10 0 59644 1800.00000 0 19515162.026 -12385339.544 10832600.236 10 0 59644 2700.00000 0 18387467.507 -11385182.324 13564925.248 10 0 59644 3600.00000 0 17135168.096 -10056680.468 16034401.398 10 0 59644 4500.00000 0 15819934.380 -8407636.007 18193282.225 10 0 59644 5400.00000 0 14502483.490 -6458704.818 19999849.917 10 0 59644 6300.00000 0 13240014.187 -4242789.710 21419208.139 10 0 59644 7200.00000 0 12083810.499 -1803926.537 22423943.717 10 0 59644 8100.00000 0 11077112.792 804291.243 22994645.841 10 0 59644 9000.00000 0 10253343.815 3520685.503 23120273.967 10 0 59644 9900.00000 0 9634762.531 6278783.543 22798368.125 10 0 59644 10800.00000 0 9231600.888 9009332.452 22035098.031 10 0 59644 11700.00000 0 9041718.908 11642935.563 20845149.977 10 0 59644 12600.00000 0 9050792.313 14112703.665 19251453.108 10 0 59644 13500.00000 0 9233025.055 16356812.876 17284749.378 10 0 59644 14400.00000 0 9552357.532 18320864.437 14983014.142 10 0 59644 15300.00000 0 9964120.701 19959949.275 12390737.040 10 0 59644 16200.00000 0 10417067.615 21240331.891 9558075.511 10 0 59644 17100.00000 0 10855697.825 22140683.345 6539895.787 10 0 59644 18000.00000 0 11222777.388 22652811.337 3394718.797 10 0 59644 18900.00000 0 11461948.419 22781856.101 183590.554 10 0 59644 19800.00000 0 11520317.724 22545943.010 -3031101.547 10 0 59644 20700.00000 0 11350914.310 21975305.551 -6186843.374 10 0 59644 21600.00000 0 10914910.505 21110914.838 -9222215.685 10 0 59644 22500.00000 0 10183510.968 20002672.852 -12078098.190 10 0 59644 23400.00000 0 9139427.622 18707245.340 -14698831.529 10 0 59644 24300.00000 0 7777875.900 17285625.932 -17033313.431 10 0 59644 25200.00000 0 6107047.898 15800534.585 -19036006.578 10 0 59644 26100.00000 0 4148040.350 14313760.769 -20667837.387 10 0 59644 27000.00000 0 1934238.529 12883564.164 -21896967.356 10 0 59644 27900.00000 0 -489819.672 11562243.156 -22699421.234 10 0 59644 28800.00000 0 -3070052.903 10393974.255 -23059559.295 10 0 59644 29700.00000 0 -5744852.141 9413013.810 -22970384.271 10 0 59644 30600.00000 0 -8447419.187 8642337.784 -22433676.937 10 0 59644 31500.00000 0 -11108330.127 8092776.643 -21459957.809 10 0 59644 32400.00000 0 -13658216.642 7762681.069 -20068275.999 10 0 59644 33300.00000 0 -16030453.040 7638131.566 -18285829.723 10 0 59644 34200.00000 0 -18163736.629 7693681.806 -16147426.384 10 0 59644 35100.00000 0 -20004453.759 7893602.809 -13694793.385 10 0 59644 36000.00000 0 -21508732.990 8193573.771 -10975753.779 10 0 59644 36900.00000 0 -22644100.141 8542746.449 -8043283.697 10 0 59644 37800.00000 0 -23390667.042 8886094.275 -4954470.750 10 0 59644 38700.00000 0 -23741805.629 9166945.472 -1769394.560 10 0 59644 39600.00000 0 -23704280.773 9329591.961 1450047.878 10 0 59644 40500.00000 0 -23297838.269 9321862.946 4641348.462 10 0 59644 41400.00000 0 -22554267.196 9097553.968 7742601.950 10 0 59644 42300.00000 0 -21515977.876 8618608.761 10693703.714 10 0 59644 43200.00000 0 -20234156.706 7856962.011 13437508.217 10 0 59644 44100.00000 0 -18766576.417 6795965.707 15920926.237 10 0 59644 45000.00000 0 -17175154.212 5431339.484 18095940.362 10 0 59644 45900.00000 0 -15523360.114 3771605.310 19920520.301 10 0 59644 46800.00000 0 -13873583.478 1837988.279 21359421.709 10 0 59644 47700.00000 0 -12284566.772 -336212.648 22384854.468 10 0 59644 48600.00000 0 -10809012.433 -2706758.501 22977008.999 10 0 59644 49500.00000 0 -9491461.106 -5220062.800 23124431.643 10 0 59644 50400.00000 0 -8366528.209 -7815178.018 22824242.697 10 0 59644 51300.00000 0 -7457570.913 -10426095.469 22082193.394 10 0 59644 52200.00000 0 -6775840.017 -12984265.274 20912560.637 10 0 59644 53100.00000 0 -6320151.388 -15421233.824 19337881.004 10 0 59644 54000.00000 0 -6077090.423 -17671291.239 17388528.170 10 0 59644 54900.00000 0 -6021741.077 -19674020.438 15102140.565 10 0 59644 55800.00000 0 -6118909.456 -21376642.881 12522908.813 10 0 59644 56700.00000 0 -6324791.290 -22736063.955 9700735.143 10 0 59644 57600.00000 0 -6589013.945 -23720532.740 6690279.521 10 0 59644 58500.00000 0 -6856967.628 -24310846.354 3549909.781 10 0 59644 59400.00000 0 -7072327.800 -24501047.666 340575.251 10 0 59644 60300.00000 0 -7179662.197 -24298586.051 -2875374.803 10 0 59644 61200.00000 0 -7127011.701 -23723933.262 -6035404.832 10 0 59644 62100.00000 0 -6868334.827 -22809669.492 -9078014.826 10 0 59644 63000.00000 0 -6365710.811 -21599077.179 -11943945.774 10 0 59644 63900.00000 0 -5591206.231 -20144301.194 -14577344.213 10 0 59644 64800.00000 0 -4528324.002 -18504152.655 -16926862.099 10 0 59644 65700.00000 0 -3172971.265 -16741648.960 -18946669.438 10 0 59644 66600.00000 0 -1533903.087 -14921394.033 -20597358.821 10 0 59644 67500.00000 0 367378.789 -13106909.622 -21846723.352 10 0 59644 68400.00000 0 2497269.680 -11358030.553 -22670392.150 10 0 59644 69300.00000 0 4811222.510 -9728474.092 -23052310.493 10 0 59644 70200.00000 0 7255377.477 -8263685.967 -22985055.040 10 0 59644 71100.00000 0 9768593.231 -6999053.642 -22469977.919 10 0 59644 72000.00000 0 12284794.685 -5958561.716 -21517176.966 10 0 59644 72900.00000 0 14735539.296 -5153945.270 -20145292.978 10 0 59644 73800.00000 0 17052694.340 -4584375.666 -18381138.288 10 0 59644 74700.00000 0 19171112.923 -4236690.640 -16259164.435 10 0 59644 75600.00000 0 21031196.709 -4086157.231 -13820779.911 10 0 59644 76500.00000 0 22581238.187 -4097733.464 -11113531.986 10 0 59644 77400.00000 0 23779444.668 -4227773.610 -8190169.412 10 0 59644 78300.00000 0 24595559.908 -4426103.015 -5107605.119 10 0 59644 79200.00000 0 25012016.406 -4638373.077 -1925799.995 10 0 59644 80100.00000 0 25024571.329 -4808595.313 1293409.636 10 0 59644 81000.00000 0 24642401.011 -4881746.206 4487517.297 10 0 59644 81900.00000 0 23887651.756 -4806331.943 7594560.507 10 0 59644 82800.00000 0 22794467.502 -4536804.334 10554319.874 10 0 59644 83700.00000 0 21407536.675 -4035725.879 13309479.980 10 0 59644 84600.00000 0 19780220.331 -3275592.926 15806730.085 10 0 59644 85500.00000 0 17972340.784 -2240240.539 17997784.030 10 0 59645 0.00000 0 16047723.613 -925770.513 19840300.671 10 0 59645 900.00000 0 14071594.408 659037.014 21298689.328 10 0 59645 1800.00000 0 12107940.678 2492843.811 22344783.693 10 0 59645 2700.00000 0 10216944.194 4542403.581 22958375.953 10 0 59645 3600.00000 0 8452591.710 6763713.886 23127599.458 10 0 59645 4500.00000 0 6860560.848 9103624.059 22849154.508 10 0 59645 5400.00000 0 5476467.635 11501833.848 22128373.175 10 0 59645 6300.00000 0 4324547.174 13893201.806 20979121.922 10 0 59645 7200.00000 0 3416821.309 16210269.461 19423543.345 10 0 59645 8100.00000 0 2752787.265 18385898.435 17491641.102 10 0 59645 9000.00000 0 2319639.921 20355912.552 15220714.675 10 0 59645 9900.00000 0 2093018.590 22061636.200 12654653.409 10 0 59645 10800.00000 0 2038247.331 23452223.974 9843101.870 10 0 59645 11700.00000 0 2112017.284 24486684.543 6840511.127 10 0 59645 12600.00000 0 2264440.793 25135513.775 3705093.176 10 0 59645 13500.00000 0 2441391.125 25381867.896 497697.828 10 0 59645 14400.00000 0 2587029.074 25222226.348 -2719366.625 10 0 59645 15300.00000 0 2646409.347 24666515.102 -5883546.019 10 0 59645 16200.00000 0 2568055.665 23737683.871 -8933262.249 10 0 59645 17100.00000 0 2306394.331 22470753.738 -11809120.069 10 0 59645 18000.00000 0 1823941.605 20911374.275 -14455074.166 10 0 59645 18900.00000 0 1093150.372 19113950.210 -16819532.708 10 0 59645 19800.00000 0 97835.830 17139416.148 -18856374.748 10 0 59645 20700.00000 0 -1165882.141 15052753.013 -20525860.488 10 0 59645 21600.00000 0 -2689161.819 12920350.926 -21795415.825 10 0 59645 22500.00000 0 -4450567.116 10807329.717 -22640275.142 10 0 59645 23400.00000 0 -6416735.832 8774930.152 -23043969.324 10 0 59645 24300.00000 0 -8543561.779 6878085.688 -22998649.211 10 0 59645 25200.00000 0 -10777841.940 5163276.748 -22505238.141 10 0 59645 26100.00000 0 -13059319.949 3666757.409 -21573410.691 10 0 59645 27000.00000 0 -15323040.342 2413228.268 -20221398.304 10 0 59645 27900.00000 0 -17501914.846 1415010.171 -18475625.949 10 0 59645 28800.00000 0 -19529392.848 671752.131 -16370187.420 10 0 59645 29700.00000 0 -21342123.950 170683.920 -13946170.111 10 0 59645 30600.00000 0 -22882500.816 -112599.375 -11250843.097 10 0 59645 31500.00000 0 -24100975.676 -212856.018 -8336725.218 10 0 59645 32400.00000 0 -24958053.637 -173475.821 -5260552.157 10 0 59645 33300.00000 0 -25425879.751 -44392.651 -2082163.502 10 0 59645 34200.00000 0 -25489354.118 120278.698 1136667.612 10 0 59645 35100.00000 0 -25146729.438 264779.861 4333438.804 10 0 59645 36000.00000 0 -24409667.322 334312.133 7446132.771 10 0 59645 36900.00000 0 -23302752.470 277594.888 10414417.690 10 0 59645 37800.00000 0 -21862486.496 49270.913 13180810.510 10 0 59645 38700.00000 0 -20135804.723 -387942.726 15691781.085 10 0 59645 39600.00000 0 -18178178.867 -1061448.551 17898776.428 10 0 59645 40500.00000 0 -16051385.249 -1987382.793 19759146.520 10 0 59645 41400.00000 0 -13821031.512 -3169707.653 21236955.066 10 0 59645 42300.00000 0 -11553944.278 -4599819.513 22303660.994 10 0 59645 43200.00000 0 -9315525.321 -6256689.751 22938658.957 10 0 59645 44100.00000 0 -7167184.684 -8107532.888 23129669.695 10 0 59645 45000.00000 0 -5163955.710 -10108975.268 22872973.549 10 0 59645 45900.00000 0 -3352389.282 -12208677.076 22173483.194 10 0 59645 46800.00000 0 -1768813.070 -14347342.018 21044654.141 10 0 59645 47700.00000 0 -438026.788 -16461032.957 19508234.252 10 0 59645 48600.00000 0 627513.317 -18483699.148 17593856.181 10 0 59645 49500.00000 0 1427987.428 -20349811.652 15338479.249 10 0 59645 50400.00000 0 1975970.536 -21996998.477 12785690.092 10 0 59645 51300.00000 0 2295666.272 -23368570.497 9984873.959 10 0 59645 52200.00000 0 2421647.982 -24415832.994 6990271.190 10 0 59645 53100.00000 0 2397159.479 -25100085.853 3859935.930 10 0 59645 54000.00000 0 2272046.654 -25394227.886 654616.327 10 0 59645 54900.00000 0 2100407.018 -25283896.744 -2563422.586 10 0 59645 55800.00000 0 1938056.569 -24768095.013 -5731610.423 10 0 59645 56700.00000 0 1839921.688 -23859274.558 -8788293.502 10 0 59645 57600.00000 0 1857467.401 -22582873.933 -11673942.951 10 0 59645 58500.00000 0 2036272.233 -20976326.926 -14332324.271 10 0 59645 59400.00000 0 2413854.035 -19087582.853 -16711604.520 10 0 59645 60300.00000 0 3017840.681 -16973200.048 -18765374.384 10 0 59645 61200.00000 0 3864564.986 -14696092.380 -20453564.098 10 0 59645 62100.00000 0 4958145.168 -12323023.384 -21743234.491 10 0 59645 63000.00000 0 6290091.483 -9921953.346 -22609227.004 10 0 59645 63900.00000 0 7839457.104 -7559351.023 -23034659.491 10 0 59645 64800.00000 0 9573528.159 -5297582.902 -23011257.892 10 0 59645 65700.00000 0 11449024.743 -3192489.561 -22539517.225 10 0 59645 66600.00000 0 13413762.897 -1291250.588 -21628688.820 10 0 59645 67500.00000 0 15408707.929 369372.985 -20296594.346 10 0 59645 68400.00000 0 17370332.750 1764345.948 -18569270.559 10 0 59645 69300.00000 0 19233181.927 2881162.317 -16480452.233 10 0 59645 70200.00000 0 20932533.392 3720112.851 -14070903.947 10 0 59645 71100.00000 0 22407045.757 4294007.520 -11387614.438 10 0 59645 72000.00000 0 23601279.724 4627366.785 -8482870.073 10 0 59645 72900.00000 0 24467987.673 4755118.198 -5413226.356 10 0 59645 73800.00000 0 24970075.471 4720855.601 -2238398.362 10 0 59645 74700.00000 0 25082154.567 4574736.554 979907.354 10 0 59645 75600.00000 0 24791620.017 4371108.676 4179195.952 10 0 59645 76500.00000 0 24099210.195 4165966.616 7297398.680 10 0 59645 77400.00000 0 23019025.887 4014348.077 10274074.477 10 0 59645 78300.00000 0 21578009.175 3967779.346 13051575.597 10 0 59645 79200.00000 0 19814904.978 4071878.199 15576155.094 10 0 59645 80100.00000 0 17778749.511 4364214.907 17798995.428 10 0 59645 81000.00000 0 15526949.206 4872520.887 19677139.456 10 0 59645 81900.00000 0 13123030.110 5613319.738 21174307.151 10 0 59645 82800.00000 0 10634150.978 6591037.631 22261583.669 10 0 59645 83700.00000 0 8128482.399 7797630.158 22917966.952 10 0 59645 84600.00000 0 5672559.364 9212741.466 23130765.537 10 0 59645 85500.00000 0 3328715.483 10804389.660 22895839.815 99